Terminal Aerodrome Forecast
Issued by NWS

Home | Current Version | Previous Version | Text Only | Print | Product List | Glossary On
Versions: 1 2 3 4 5 6 7 8 9 10 11 12 13 14 15 16 17 18 19 20 21 22 23 24 25
649
FTAK31 PANC 102335
TAFAGK
TAF
PAGK 102335Z 1100/1124 VRB05KT P6SM VCSH SCT040 OVC070
      TEMPO 1100/1103 3SM -SHSN BKN020
     FM110300 VRB04KT P6SM SCT070 BKN100
     FM111200 VRB04KT P6SM VCSH OVC040
     FM112100 35005KT P6SM OVC100=

USA.gov is the U.S. government's official web portal to all federal, state and local government web resources and services.